TimeCET,TemperatureF,Dew PointF,Humidity,Sea Level PressureIn,VisibilityMPH,Wind Direction,Wind SpeedMPH,Gust SpeedMPH,PrecipitationIn,Events,Conditions,WindDirDegrees,DateUTC
12:55 AM,53.6,50.0,88,30.18,-9999.0,East,5.8,-,N/A,,Clear,100,2012-11-24 23:55:00
1:00 AM,53,49,84,30.19,6,East,5.8,,,,Mostly Cloudy,100,2012-11-25 00:00:00
1:55 AM,53.6,48.2,82,30.15,-9999.0,East,5.8,-,N/A,,Clear,100,2012-11-25 00:55:00
2:55 AM,53.6,50.0,88,30.18,6.2,SW,4.6,-,N/A,,Scattered Clouds,220,2012-11-25 01:55:00
3:55 AM,53.6,50.0,88,30.15,6.2,SW,3.5,-,N/A,,Scattered Clouds,220,2012-11-25 02:55:00
4:55 AM,53.6,50.0,88,30.15,6.2,East,2.3,-,N/A,,Scattered Clouds,90,2012-11-25 03:55:00
5:55 AM,53.6,50.0,88,30.15,6.2,East,2.3,-,N/A,,Scattered Clouds,100,2012-11-25 04:55:00
6:55 AM,53.6,50.0,88,30.15,6.2,East,4.6,-,N/A,,Partly Cloudy,80,2012-11-25 05:55:00
7:00 AM,54,49,79,30.17,6,East,4.6,,,,Scattered Clouds,80,2012-11-25 06:00:00
7:55 AM,53.6,48.2,82,30.15,5.0,East,5.8,-,N/A,,Overcast,90,2012-11-25 06:55:00
8:55 AM,53.6,50.0,88,30.18,6.2,East,3.5,-,N/A,,Scattered Clouds,100,2012-11-25 07:55:00
9:55 AM,55.4,48.2,77,30.18,5.0,Calm,Calm,-,N/A,,Scattered Clouds,360,2012-11-25 08:55:00
10:55 AM,57.2,50.0,77,30.15,4.3,SSW,3.5,-,N/A,,Scattered Clouds,210,2012-11-25 09:55:00
11:55 AM,57.2,50.0,77,30.15,4.3,West,2.3,-,N/A,,Scattered Clouds,260,2012-11-25 10:55:00
12:55 PM,57.2,50.0,77,30.15,3.7,North,2.3,-,N/A,,Scattered Clouds,360,2012-11-25 11:55:00
1:00 PM,57,50,72,30.16,2,North,2.3,,,,Mist,0,2012-11-25 12:00:00
1:55 PM,57.2,51.8,82,30.15,3.7,NNW,2.3,-,N/A,,Scattered Clouds,340,2012-11-25 12:55:00
2:55 PM,57.2,51.8,82,30.12,3.1,NE,2.3,-,N/A,,Scattered Clouds,50,2012-11-25 13:55:00
3:55 PM,57.2,51.8,82,30.12,3.1,NE,3.5,-,N/A,,Scattered Clouds,50,2012-11-25 14:55:00
4:55 PM,57.2,53.6,88,30.12,3.1,East,4.6,-,N/A,,Scattered Clouds,80,2012-11-25 15:55:00
5:55 PM,57.2,53.6,88,30.12,4.3,ENE,3.5,-,N/A,,Scattered Clouds,60,2012-11-25 16:55:00
6:55 PM,55.4,51.8,88,30.12,4.3,ENE,3.5,-,N/A,,Scattered Clouds,70,2012-11-25 17:55:00
7:00 PM,56,53,85,30.14,2,ENE,3.5,,,,Mist,70,2012-11-25 18:00:00
7:55 PM,55.4,53.6,94,30.12,5.0,ENE,4.6,-,N/A,,Scattered Clouds,60,2012-11-25 18:55:00
8:55 PM,55.4,53.6,94,30.12,5.0,NNW,4.6,-,N/A,,Scattered Clouds,330,2012-11-25 19:55:00
9:55 PM,55.4,53.6,94,30.12,5.0,SSE,2.3,-,N/A,,Mostly Cloudy,150,2012-11-25 20:55:00
10:55 PM,55.4,53.6,94,30.12,5.0,ENE,2.3,-,N/A,,Mostly Cloudy,70,2012-11-25 21:55:00
11:55 PM,55.4,53.6,94,30.12,5.0,ENE,2.3,-,N/A,,Mostly Cloudy,60,2012-11-25 22:55:00